Silver City, NM

10:13 AM MDT on May 22, 2017 (GMT -0600)
Grant County

Weather History for KSVC - March, 2013

Change the Weather History Date:

Tuesday, March 19, 2013

  Actual Average (KDMN) Record (KDMN)
Temperature  
Mean Temperature 50 °F -  
Max Temperature 68 °F 70 °F 88 °F (2017)
Min Temperature 32 °F 34 °F 12 °F (1962)
Degree Days  
Heating Degree Days 15    
Moisture  
Dew Point 17 °F    
Average Humidity 25    
Maximum Humidity 48    
Minimum Humidity 15    
Precipitation  
Precipitation 0.00 in - - ()
Sea Level Pressure  
Sea Level Pressure 30.10 in    
Wind  
Wind Speed 12 mph (NW)    
Max Wind Speed 22 mph    
Max Gust Speed 33 mph    
Visibility 10 miles    
Events      
Averages and records for this station are not official NWS values.
T = Trace of Precipitation, MM = Missing Value Source: NWS Daily Summary

Daily Weather History Graph

Daily Weather History Graph

Search for Another Location

Airport or City:

Trip Planner

Search our weather history database for the weather conditions in past years. The results will help you decide how hot, cold, wet, or windy it might be!

Date:

Astronomy

Mar. 19, 2013 Rise Set
Actual Time 7:17 AM MDT 7:23 PM MDT
Civil Twilight 6:52 AM MDT 7:48 PM MDT
Nautical Twilight 6:24 AM MDT 8:16 PM MDT
Astronomical Twilight 5:55 AM MDT 8:45 PM MDT
Moon 12:28 PM MDT (3/19) 1:55 AM MDT (3/19)
Length of Visible Light 12h 55m
Length of Day
12h 06m
Waxing Crescent, 50% of the Moon is Illuminated
Mar 19
Waxing Crescent
Mar 27
Full
Apr 2
Last Quarter
Apr 10
New
Apr 18
First Quarter

Hourly Weather History & Observations

Time (MDT) Temp. Windchill Dew Point Humidity Pressure Visibility Wind Dir Wind Speed Gust Speed Precip Events Conditions
12:15 AM 42.8 °F 36.6 °F 10.4 °F 27% 30.09 in 10.0 mi North 11.5 mph - N/A   Clear
12:35 AM 46.4 °F 40.1 °F 12.2 °F 25% 30.08 in 10.0 mi NNW 15.0 mph - N/A   Clear
12:55 AM 48.2 °F - 14.0 °F 25% 30.08 in 10.0 mi NNW 11.5 mph - N/A   Clear
1:15 AM 46.4 °F 41.5 °F 14.0 °F 27% 30.09 in 10.0 mi NNW 10.4 mph - N/A   Clear
1:35 AM 44.6 °F 38.8 °F 14.0 °F 29% 30.09 in 10.0 mi NNW 11.5 mph - N/A   Clear
1:55 AM 44.6 °F 38.8 °F 14.0 °F 29% 30.09 in 10.0 mi NW 11.5 mph - N/A   Clear
2:15 AM 44.6 °F 39.2 °F 14.0 °F 29% 30.09 in 10.0 mi NNW 10.4 mph - N/A   Clear
2:35 AM 46.4 °F 40.4 °F 15.8 °F 29% 30.09 in 10.0 mi NNW 13.8 mph - N/A   Clear
2:55 AM 46.4 °F 40.7 °F 15.8 °F 29% 30.08 in 10.0 mi NNW 12.7 mph - N/A   Clear
3:15 AM 44.6 °F 38.4 °F 15.8 °F 31% 30.08 in 10.0 mi NW 12.7 mph - N/A   Clear
3:35 AM 44.6 °F 38.8 °F 15.8 °F 31% 30.07 in 10.0 mi NW 11.5 mph - N/A   Clear
3:55 AM 44.6 °F 38.8 °F 15.8 °F 31% 30.07 in 10.0 mi NW 11.5 mph - N/A   Clear
4:15 AM 42.8 °F 37.0 °F 15.8 °F 34% 30.06 in 10.0 mi NW 10.4 mph - N/A   Clear
4:35 AM 41.0 °F 35.2 °F 15.8 °F 36% 30.06 in 10.0 mi NW 9.2 mph - N/A   Clear
4:55 AM 41.0 °F 35.2 °F 15.8 °F 36% 30.06 in 10.0 mi NW 9.2 mph - N/A   Clear
5:15 AM 41.0 °F 35.8 °F 15.8 °F 36% 30.06 in 10.0 mi NW 8.1 mph - N/A   Clear
5:35 AM 41.0 °F 35.8 °F 15.8 °F 36% 30.07 in 10.0 mi NW 8.1 mph - N/A   Clear
5:55 AM 41.0 °F 35.2 °F 15.8 °F 36% 30.06 in 10.0 mi NNW 9.2 mph - N/A   Clear
6:15 AM 35.6 °F 29.2 °F 14.0 °F 41% 30.06 in 10.0 mi NW 8.1 mph - N/A   Clear
6:35 AM 33.8 °F 26.4 °F 14.0 °F 44% 30.07 in 10.0 mi NW 9.2 mph - N/A   Clear
6:55 AM 32.0 °F 24.8 °F 14.0 °F 48% 30.07 in 10.0 mi NW 8.1 mph - N/A   Clear
7:15 AM 33.8 °F 27.0 °F 14.0 °F 44% 30.07 in 10.0 mi NNW 8.1 mph - N/A   Clear
7:35 AM 37.4 °F 30.8 °F 15.8 °F 41% 30.07 in 10.0 mi NNW 9.2 mph - N/A   Clear
7:55 AM 39.2 °F 33.0 °F 15.8 °F 39% 30.08 in 10.0 mi NNW 9.2 mph - N/A   Clear
8:15 AM 41.0 °F 35.2 °F 15.8 °F 36% 30.09 in 10.0 mi NNW 9.2 mph - N/A   Clear
8:35 AM 46.4 °F 42.4 °F 15.8 °F 29% 30.09 in 10.0 mi NNW 8.1 mph - N/A   Clear
8:55 AM 50.0 °F - 17.6 °F 28% 30.11 in 10.0 mi NNW 9.2 mph - N/A   Clear
9:15 AM 53.6 °F - 17.6 °F 24% 30.12 in 10.0 mi NNW 8.1 mph - N/A   Partly Cloudy
9:35 AM 57.2 °F - 17.6 °F 21% 30.12 in 10.0 mi NW 8.1 mph - N/A   Mostly Cloudy
9:55 AM 57.2 °F - 17.6 °F 21% 30.12 in 10.0 mi North 4.6 mph - N/A   Mostly Cloudy
10:15 AM 59.0 °F - 17.6 °F 20% 30.11 in 10.0 mi WNW 8.1 mph - N/A   Mostly Cloudy
10:35 AM 59.0 °F - 17.6 °F 20% 30.12 in 10.0 mi NNW 10.4 mph - N/A   Mostly Cloudy
10:55 AM 59.0 °F - 19.4 °F 22% 30.12 in 10.0 mi WNW 10.4 mph 17.3 mph N/A   Mostly Cloudy
11:15 AM 60.8 °F - 19.4 °F 20% 30.12 in 10.0 mi NW 11.5 mph - N/A   Mostly Cloudy
11:35 AM 62.6 °F - 21.2 °F 20% 30.12 in 10.0 mi NW 11.5 mph - N/A   Mostly Cloudy
11:55 AM 62.6 °F - 23.0 °F 22% 30.12 in 10.0 mi NW 15.0 mph 18.4 mph N/A   Scattered Clouds
12:15 PM 62.6 °F - 23.0 °F 22% 30.12 in 10.0 mi WNW 12.7 mph 26.5 mph N/A   Partly Cloudy
12:35 PM 64.4 °F - 23.0 °F 21% 30.11 in 10.0 mi WNW 15.0 mph 21.9 mph N/A   Clear
12:55 PM 64.4 °F - 21.2 °F 19% 30.11 in 10.0 mi NW 13.8 mph 27.6 mph N/A   Clear
1:15 PM 64.4 °F - 23.0 °F 21% 30.11 in 10.0 mi West 13.8 mph 25.3 mph N/A   Clear
1:35 PM 64.4 °F - 23.0 °F 21% 30.10 in 10.0 mi WNW 15.0 mph 25.3 mph N/A   Clear
1:55 PM 64.4 °F - 21.2 °F 19% 30.09 in 10.0 mi NNW 6.9 mph 23.0 mph N/A   Clear
2:15 PM 66.2 °F - 21.2 °F 18% 30.08 in 10.0 mi WNW 13.8 mph 21.9 mph N/A   Clear
2:35 PM 64.4 °F - 21.2 °F 19% 30.07 in 10.0 mi NW 13.8 mph 24.2 mph N/A   Clear
2:55 PM 66.2 °F - 19.4 °F 17% 30.06 in 10.0 mi West 16.1 mph 25.3 mph N/A   Clear
3:15 PM 66.2 °F - 19.4 °F 17% 30.05 in 10.0 mi West 17.3 mph 24.2 mph N/A   Clear
3:35 PM 66.2 °F - 17.6 °F 15% 30.05 in 10.0 mi West 15.0 mph 27.6 mph N/A   Clear
3:55 PM 68.0 °F - 17.6 °F 15% 30.05 in 10.0 mi NW 16.1 mph 33.4 mph N/A   Clear
4:15 PM 66.2 °F - 17.6 °F 15% 30.05 in 10.0 mi WNW 20.7 mph 29.9 mph N/A   Clear
4:35 PM 66.2 °F - 17.6 °F 15% 30.05 in 10.0 mi WNW 21.9 mph 31.1 mph N/A   Clear
4:55 PM 68.0 °F - 17.6 °F 15% 30.05 in 10.0 mi WNW 17.3 mph 25.3 mph N/A   Clear
5:15 PM 66.2 °F - 17.6 °F 15% 30.06 in 10.0 mi WNW 19.6 mph 26.5 mph N/A   Clear
5:35 PM 66.2 °F - 17.6 °F 15% 30.06 in 10.0 mi West 19.6 mph 28.8 mph N/A   Clear
5:55 PM 66.2 °F - 17.6 °F 15% 30.06 in 10.0 mi West 21.9 mph 28.8 mph N/A   Clear
6:15 PM 66.2 °F - 17.6 °F 15% 30.07 in 10.0 mi West 15.0 mph 21.9 mph N/A   Clear
6:35 PM 64.4 °F - 17.6 °F 16% 30.07 in 10.0 mi WNW 17.3 mph 23.0 mph N/A   Clear
6:55 PM 64.4 °F - 15.8 °F 15% 30.08 in 10.0 mi West 19.6 mph - N/A   Clear
7:15 PM 62.6 °F - 17.6 °F 18% 30.09 in 10.0 mi West 9.2 mph - N/A   Clear
7:35 PM 60.8 °F - 15.8 °F 17% 30.10 in 10.0 mi West 5.8 mph - N/A   Clear
7:55 PM 59.0 °F - 17.6 °F 20% 30.10 in 10.0 mi West 8.1 mph - N/A   Clear
8:15 PM 57.2 °F - 17.6 °F 21% 30.11 in 10.0 mi West 6.9 mph - N/A   Clear
8:35 PM 55.4 °F - 17.6 °F 23% 30.13 in 10.0 mi West 4.6 mph - N/A   Clear
8:55 PM 53.6 °F - 15.8 °F 22% 30.14 in 10.0 mi NNW 3.5 mph - N/A   Clear
9:15 PM 50.0 °F - 15.8 °F 26% 30.14 in 10.0 mi North 9.2 mph - N/A   Clear
9:35 PM 50.0 °F - 15.8 °F 26% 30.15 in 10.0 mi North 12.7 mph - N/A   Clear
9:55 PM 55.4 °F - 17.6 °F 23% 30.17 in 10.0 mi North 12.7 mph - N/A   Mostly Cloudy
10:15 PM 53.6 °F - 15.8 °F 22% 30.17 in 10.0 mi NNW 10.4 mph - N/A   Mostly Cloudy
10:35 PM 53.6 °F - 17.6 °F 24% 30.18 in 10.0 mi NNW 11.5 mph - N/A   Partly Cloudy
10:55 PM 50.0 °F - 17.6 °F 28% 30.18 in 10.0 mi NNW 10.4 mph - N/A   Clear
11:15 PM 48.2 °F - 17.6 °F 30% 30.18 in 10.0 mi North 11.5 mph - N/A   Clear
11:35 PM 48.2 °F - 17.6 °F 30% 30.19 in 10.0 mi North 12.7 mph - N/A   Clear
11:55 PM 50.0 °F - 17.6 °F 28% 30.18 in 10.0 mi NNE 12.7 mph - N/A   Clear